Change the Weather History Date:

Thursday, October 20, 2011

  Actual Average Record
Temperature  
Mean Temperature 62 °F 53 °F  
Max Temperature 69 °F 60 °F 79 °F (1969)
Min Temperature 54 °F 45 °F 32 °F (1972)
Degree Days  
Heating Degree Days 3 13  
Month to date heating degree days 74 193  
Since 1 July heating degree days 118 290  
Cooling Degree Days 0 0  
Month to date cooling degree days 25 6  
Year to date cooling degree days 1007 746  
Growing Degree Days 11 (Base 50)    
Moisture  
Dew Point 54 °F    
Average Humidity 76    
Maximum Humidity 100    
Minimum Humidity 52    
Precipitation  
Precipitation 0.47 in 0.13 in 6.11 in (1996)
Month to date precipitation 4.76 2.55  
Year to date precipitation 42.21 34.61  
Snow  
Snow 0.00 in 0.00 in 0.00 in (2009)
Month to date snowfall 0.0 0.0  
Since 1 July snowfall 0.0 0.0  
Since 1 September snowfall 0.0 0.0  
Snow Depth 0.00 in    
Sea Level Pressure  
Sea Level Pressure 29.53 in    
Wind  
Wind Speed 14 mph (ENE)    
Max Wind Speed 30 mph    
Max Gust Speed 38 mph    
Visibility 5 miles    
Events Fog , Rain    
T = Trace of Precipitation, MM = Missing Value Source: NWS Daily Summary

Daily Weather History Graph

Daily Weather History Graph

Search for Another Location

Airport or City:

Trip Planner

Search our weather history database for the weather conditions in past years. The results will help you decide how hot, cold, wet, or windy it might be!

Date:

Astronomy

Oct. 20, 2011 Rise Set
Actual Time 7:02 AM EDT 5:54 PM EDT
Civil Twilight 6:33 AM EDT 6:23 PM EDT
Nautical Twilight 6:01 AM EDT 6:55 PM EDT
Astronomical Twilight 5:28 AM EDT 7:28 PM EDT
Moon No Moon Rise 2:09 PM EDT (10/20)
Length of Visible Light 11h 49m
Length of Day
10h 52m
Last Quarter, 44% of the Moon is Illuminated
Oct 20
Last Quarter
Oct 26
New
Nov 2
First Quarter
Nov 10
Full
Nov 18
Last Quarter

Hourly Weather History & Observations

Time (EDT) Temp. Dew Point Humidity Pressure Visibility Wind Dir Wind Speed Gust Speed Precip Events Conditions
12:54 AM 54.0 °F 54.0 °F 100% 29.60 in 2.0 mi NNE 20.7 mph 28.8 mph 0.06 in Rain Rain
1:14 AM 53.6 °F 53.6 °F 100% 29.58 in 1.8 mi NE 21.9 mph 28.8 mph 0.13 in Rain Heavy Rain
1:29 AM 53.6 °F 53.6 °F 100% 29.57 in 2.0 mi NE 21.9 mph 28.8 mph 0.21 in Rain Light Rain
1:54 AM 54.0 °F 54.0 °F 100% 29.55 in 2.0 mi NNE 24.2 mph 31.1 mph 0.28 in Rain Light Rain
2:23 AM 53.6 °F 53.6 °F 100% 29.54 in 2.0 mi NNE 23.0 mph 34.5 mph 0.01 in Rain Light Rain
2:47 AM 53.6 °F 53.6 °F 100% 29.56 in 3.0 mi North 16.1 mph 26.5 mph 0.15 in Rain Rain
2:54 AM 54.0 °F 54.0 °F 100% 29.56 in 4.0 mi NNE 11.5 mph 23.0 mph 0.16 in Rain Light Rain
3:54 AM 54.0 °F 54.0 °F 100% 29.54 in 4.0 mi NNE 11.5 mph - 0.03 in Rain Rain
4:54 AM 54.0 °F 54.0 °F 100% 29.56 in 6.0 mi North 6.9 mph - 0.02 in Rain Light Rain
5:54 AM 55.0 °F 55.0 °F 100% 29.55 in 10.0 mi North 6.9 mph - 0.00 in   Overcast
6:54 AM 55.0 °F 55.0 °F 100% 29.54 in 8.0 mi NE 8.1 mph - N/A   Overcast
7:38 AM 53.6 °F 53.6 °F 100% 29.53 in 7.0 mi NE 10.4 mph - 0.00 in Rain Light Rain
7:54 AM 54.0 °F 54.0 °F 100% 29.53 in 4.0 mi NE 9.2 mph - 0.00 in   Overcast
8:15 AM 55.4 °F 55.4 °F 100% 29.51 in 1.8 mi NE 10.4 mph - N/A   Overcast
8:54 AM 55.0 °F 55.0 °F 100% 29.51 in 2.0 mi NE 5.8 mph - N/A   Overcast
9:25 AM 55.4 °F 55.4 °F 100% 29.50 in 5.0 mi NE 5.8 mph - N/A   Overcast
9:54 AM 55.9 °F 55.9 °F 100% 29.51 in 7.0 mi ENE 3.5 mph - N/A   Overcast
10:08 AM 55.4 °F 55.4 °F 100% 29.51 in 2.0 mi ENE 8.1 mph - N/A   Overcast
10:54 AM 55.9 °F 55.9 °F 100% 29.49 in 2.0 mi NE 9.2 mph - 0.00 in   Overcast
11:01 AM 57.2 °F 57.2 °F 100% 29.49 in 0.5 mi NE 6.9 mph - N/A Fog Fog
11:16 AM 55.4 °F 55.4 °F 100% 29.50 in 0.2 mi Variable 4.6 mph - N/A Fog Fog
11:39 AM 59.0 °F 59.0 °F 100% 29.49 in 0.5 mi East 4.6 mph - 0.00 in Fog Fog
11:47 AM 60.8 °F 60.8 °F 100% 29.49 in 0.5 mi ESE 5.8 mph - 0.00 in   Overcast
11:54 AM 60.1 °F 60.1 °F 100% 29.48 in 0.5 mi SE 4.6 mph - 0.00 in   Overcast
12:18 PM 60.8 °F 60.8 °F 100% 29.47 in 0.5 mi SE 3.5 mph - N/A   Mostly Cloudy
12:30 PM 60.8 °F 60.8 °F 100% 29.46 in 7.0 mi Calm Calm - N/A   Scattered Clouds
12:54 PM 66.0 °F 61.0 °F 84% 29.46 in 10.0 mi SSW 10.4 mph 17.3 mph N/A   Scattered Clouds
1:54 PM 69.1 °F 54.0 °F 58% 29.46 in 10.0 mi South 21.9 mph 31.1 mph N/A   Partly Cloudy
2:54 PM 68.0 °F 51.1 °F 55% 29.47 in 10.0 mi SSW 24.2 mph 34.5 mph N/A   Partly Cloudy
3:54 PM 66.0 °F 48.9 °F 54% 29.50 in 10.0 mi SSW 21.9 mph 33.4 mph N/A   Partly Cloudy
4:54 PM 64.9 °F 48.0 °F 54% 29.51 in 10.0 mi SW 21.9 mph 34.5 mph N/A   Partly Cloudy
5:54 PM 63.0 °F 46.9 °F 56% 29.53 in 10.0 mi SSW 21.9 mph 27.6 mph N/A   Partly Cloudy
6:54 PM 62.1 °F 48.9 °F 62% 29.57 in 10.0 mi SSW 18.4 mph 25.3 mph N/A   Scattered Clouds
7:54 PM 61.0 °F 46.9 °F 60% 29.59 in 10.0 mi SW 19.6 mph 26.5 mph N/A   Partly Cloudy
8:54 PM 60.1 °F 46.9 °F 62% 29.62 in 10.0 mi SW 17.3 mph 27.6 mph N/A   Partly Cloudy
9:54 PM 60.1 °F 46.9 °F 62% 29.64 in 10.0 mi SSW 16.1 mph - N/A   Partly Cloudy
10:54 PM 59.0 °F 46.0 °F 62% 29.65 in 10.0 mi SSW 13.8 mph 23.0 mph N/A   Partly Cloudy
11:54 PM 57.9 °F 44.1 °F 60% 29.67 in 10.0 mi SW 12.7 mph - N/A   Partly Cloudy